When you browse on this site, cookies collect data to enhance your experience and personalize the content and advertising you see.
Visit our Privacy Policy to learn more. By continuing to use the site, you agree to this use of cookies and data.
  • In Netherlands
  • List of Countries
  • For 7 days
  • Water Temperature
  • Weather Map
  • Weather Widgets
  • user-avatar
    Login

    Hourly Weather Rulewo

    Today, 22 September, Sunday

    Time Temperature Precipitation Wind Pressure Humidity
    00:00 +10°C° 0 mm 2 mps 757 mmHg 94%
    01:00 +11°C° 0 mm 1 mps 757 mmHg 95%
    02:00 +9°C° 0 mm 2 mps 757 mmHg 95%
    03:00 +9°C° 0 mm 2 mps 757 mmHg 95%
    04:00 +9°C° 0 mm 2 mps 757 mmHg 94%
    05:00 +9°C° 0 mm 2 mps 757 mmHg 92%
    06:00 +10°C° 0 mm 2 mps 757 mmHg 91%
    07:00 +12°C° 0 mm 2 mps 757 mmHg 89%
    08:00 +14°C° 0 mm 2 mps 757 mmHg 80%
    09:00 +16°C° 0 mm 2 mps 757 mmHg 71%
    10:00 +18°C° 0 mm 2 mps 756 mmHg 63%
    11:00 +19°C° 0 mm 2 mps 756 mmHg 57%
    12:00 +21°C° 0 mm 2 mps 756 mmHg 51%
    13:00 +23°C° 0 mm 2 mps 755 mmHg 46%
    14:00 +23°C° 0 mm 2 mps 755 mmHg 46%
    15:00 +23°C° 0 mm 1 mps 755 mmHg 47%
    16:00 +23°C° 0 mm 1 mps 754 mmHg 47%
    17:00 +21°C° 0 mm 1 mps 754 mmHg 55%
    18:00 +19°C° 0 mm 1 mps 754 mmHg 63%
    19:00 +16°C° 0 mm 1 mps 754 mmHg 71%
    20:00 +15°C° 0 mm 1 mps 755 mmHg 76%
    21:00 +14°C° 0 mm 2 mps 755 mmHg 81%
    22:00 +13°C° 0 mm 2 mps 755 mmHg 86%
    23:00 +13°C° 0 mm 2 mps 755 mmHg 87%

    Tomorrow, 23 September, Monday

    Time Temperature Precipitation Wind Pressure Humidity
    00:00 +12°C° 0 mm 2 mps 755 mmHg 88%
    01:00 +12°C° 0 mm 2 mps 755 mmHg 89%
    02:00 +12°C° 0 mm 2 mps 755 mmHg 91%
    03:00 +10°C° 0 mm 2 mps 755 mmHg 93%
    04:00 +10°C° 0 mm 3 mps 755 mmHg 95%
    05:00 +10°C° 0 mm 3 mps 755 mmHg 94%
    06:00 +11°C° 0 mm 3 mps 755 mmHg 93%
    07:00 +11°C° 0 mm 3 mps 755 mmHg 92%
    08:00 +12°C° 0 mm 3 mps 756 mmHg 84%
    09:00 +14°C° 0 mm 3 mps 756 mmHg 75%
    10:00 +16°C° 0 mm 3 mps 756 mmHg 67%
    11:00 +17°C° 0 mm 4 mps 756 mmHg 64%
    12:00 +19°C° 0 mm 4 mps 755 mmHg 60%
    13:00 +20°C° 0 mm 4 mps 755 mmHg 56%
    14:00 +20°C° 0 mm 4 mps 755 mmHg 57%
    15:00 +20°C° 0 mm 4 mps 755 mmHg 59%
    16:00 +19°C° 0 mm 3 mps 755 mmHg 60%
    17:00 +18°C° 0 mm 3 mps 755 mmHg 66%
    18:00 +16°C° 0 mm 3 mps 755 mmHg 72%
    19:00 +13°C° 0 mm 3 mps 755 mmHg 79%
    20:00 +12°C° 0 mm 3 mps 755 mmHg 80%
    21:00 +11°C° 0 mm 3 mps 755 mmHg 81%
    22:00 +11°C° 0 mm 3 mps 755 mmHg 82%
    23:00 +10°C° 0 mm 3 mps 755 mmHg 83%

    Day after tomorrow, 24 September, Tuesday

    Time Temperature Precipitation Wind Pressure Humidity
    00:00 +10°C° 0 mm 2 mps 755 mmHg 85%
    01:00 +9°C° 0 mm 2 mps 755 mmHg 86%
    02:00 +9°C° 0 mm 2 mps 755 mmHg 88%
    03:00 +8°C° 0 mm 2 mps 754 mmHg 90%
    04:00 +8°C° 0 mm 2 mps 754 mmHg 92%
    05:00 +9°C° 0 mm 2 mps 754 mmHg 90%
    06:00 +9°C° 0 mm 3 mps 754 mmHg 89%
    07:00 +10°C° 0 mm 3 mps 753 mmHg 87%
    08:00 +12°C° 0 mm 3 mps 753 mmHg 79%
    09:00 +14°C° 0 mm 3 mps 753 mmHg 72%
    10:00 +17°C° 0 mm 3 mps 753 mmHg 64%
    11:00 +18°C° 0 mm 3 mps 753 mmHg 60%
    12:00 +20°C° 0 mm 4 mps 752 mmHg 56%
    13:00 +21°C° 0 mm 4 mps 752 mmHg 51%
    14:00 +21°C° 0 mm 3 mps 751 mmHg 53%
    15:00 +21°C° 0 mm 3 mps 751 mmHg 56%
    16:00 +20°C° 0 mm 2 mps 751 mmHg 58%
    17:00 +19°C° 0.1 mm 2 mps 750 mmHg 63%
    18:00 +18°C° 0.1 mm 2 mps 750 mmHg 68%
    19:00 +18°C° 0.1 mm 1 mps 750 mmHg 73%
    20:00 +16°C° 0.1 mm 1 mps 750 mmHg 76%
    21:00 +16°C° 0.1 mm 1 mps 750 mmHg 78%
    22:00 +15°C° 0.1 mm 1 mps 750 mmHg 81%
    23:00 +15°C° 0 mm 2 mps 749 mmHg 81%

    25 September, Wednesday

    Time Temperature Precipitation Wind Pressure Humidity
    00:00 +15°C° 0 mm 2 mps 749 mmHg 81%
    01:00 +15°C° 0 mm 2 mps 748 mmHg 81%
    02:00 +15°C° 0 mm 2 mps 748 mmHg 82%
    03:00 +14°C° 0 mm 2 mps 748 mmHg 83%
    04:00 +14°C° 0 mm 2 mps 748 mmHg 84%
    05:00 +14°C° 0 mm 2 mps 747 mmHg 86%
    06:00 +14°C° 0 mm 2 mps 747 mmHg 87%
    07:00 +15°C° 0 mm 2 mps 747 mmHg 88%
    08:00 +16°C° 0.1 mm 2 mps 747 mmHg 83%
    09:00 +17°C° 0.1 mm 2 mps 747 mmHg 78%
    10:00 +18°C° 0.1 mm 2 mps 747 mmHg 74%
    11:00 +19°C° 0.1 mm 3 mps 747 mmHg 68%
    12:00 +20°C° 0.1 mm 3 mps 747 mmHg 62%
    13:00 +21°C° 0.1 mm 4 mps 747 mmHg 56%
    14:00 +20°C° 0.1 mm 3 mps 746 mmHg 60%
    15:00 +19°C° 0.1 mm 3 mps 746 mmHg 63%
    16:00 +18°C° 0.1 mm 3 mps 746 mmHg 66%
    17:00 +17°C° 0.2 mm 2 mps 746 mmHg 72%
    18:00 +16°C° 0.2 mm 2 mps 746 mmHg 78%
    19:00 +15°C° 0.2 mm 2 mps 746 mmHg 84%
    20:00 +15°C° 0.9 mm 2 mps 747 mmHg 86%
    21:00 +15°C° 0.9 mm 2 mps 747 mmHg 89%
    22:00 +14°C° 0.9 mm 3 mps 747 mmHg 92%
    23:00 +14°C° 0.6 mm 3 mps 747 mmHg 92%

    26 September, Thursday

    Time Temperature Precipitation Wind Pressure Humidity
    00:00 +13°C° 0.6 mm 3 mps 747 mmHg 91%
    01:00 +13°C° 0.6 mm 4 mps 747 mmHg 91%
    02:00 +13°C° 0.1 mm 4 mps 747 mmHg 91%
    03:00 +13°C° 0.1 mm 4 mps 747 mmHg 91%
    04:00 +13°C° 0.1 mm 4 mps 747 mmHg 91%
    05:00 +13°C° 0.2 mm 4 mps 748 mmHg 91%
    06:00 +13°C° 0.2 mm 4 mps 748 mmHg 91%
    07:00 +13°C° 0.2 mm 4 mps 748 mmHg 90%
    08:00 +14°C° 0 mm 4 mps 749 mmHg 86%
    09:00 +15°C° 0 mm 4 mps 749 mmHg 81%
    10:00 +15°C° 0 mm 4 mps 750 mmHg 76%
    11:00 +17°C° 0.4 mm 4 mps 750 mmHg 75%
    12:00 +16°C° 0.4 mm 5 mps 750 mmHg 74%
    13:00 +16°C° 0.4 mm 5 mps 750 mmHg 73%
    14:00 +17°C° 0.4 mm 4 mps 750 mmHg 76%
    15:00 +16°C° 0.4 mm 3 mps 750 mmHg 80%
    16:00 +15°C° 0.4 mm 2 mps 750 mmHg 83%
    17:00 +15°C° 0.1 mm 2 mps 751 mmHg 85%
    18:00 +14°C° 0.1 mm 2 mps 751 mmHg 88%
    19:00 +13°C° 0.1 mm 2 mps 751 mmHg 90%
    20:00 +12°C° 0 mm 2 mps 752 mmHg 91%
    21:00 +12°C° 0 mm 2 mps 752 mmHg 91%
    22:00 +12°C° 0 mm 1 mps 752 mmHg 92%
    23:00 +12°C° 0 mm 2 mps 752 mmHg 91%

    27 September, Friday

    Time Temperature Precipitation Wind Pressure Humidity
    00:00 +10°C° 0 mm 2 mps 752 mmHg 91%
    01:00 +10°C° 0 mm 2 mps 752 mmHg 90%
    02:00 +10°C° 0 mm 2 mps 752 mmHg 90%
    03:00 +10°C° 0 mm 2 mps 752 mmHg 89%
    04:00 +10°C° 0 mm 3 mps 752 mmHg 89%
    05:00 +10°C° 0.3 mm 3 mps 752 mmHg 90%
    06:00 +10°C° 0.3 mm 3 mps 752 mmHg 91%
    07:00 +10°C° 0.3 mm 3 mps 753 mmHg 92%
    08:00 +10°C° 0.3 mm 3 mps 753 mmHg 91%
    09:00 +10°C° 0.3 mm 3 mps 753 mmHg 91%
    10:00 +10°C° 0.3 mm 3 mps 753 mmHg 90%
    11:00 +11°C° 0 mm 3 mps 753 mmHg 89%
    12:00 +11°C° 0 mm 3 mps 753 mmHg 87%
    13:00 +12°C° 0 mm 3 mps 753 mmHg 86%
    14:00 +12°C° 0 mm 3 mps 753 mmHg 85%
    15:00 +13°C° 0 mm 3 mps 753 mmHg 85%
    16:00 +13°C° 0 mm 3 mps 752 mmHg 84%
    17:00 +13°C° 0 mm 3 mps 752 mmHg 87%
    18:00 +12°C° 0 mm 3 mps 752 mmHg 89%
    19:00 +11°C° 0 mm 3 mps 752 mmHg 91%
    20:00 +12°C° 0 mm 4 mps 752 mmHg 91%
    21:00 +12°C° 0 mm 4 mps 752 mmHg 91%
    22:00 +12°C° 0 mm 4 mps 752 mmHg 91%
    23:00 +11°C° 0 mm 4 mps 752 mmHg 93%
    Show more